Location: Plymouth
(43.7570°N, 71.6890°W)
Time: 12:44:52
(UTC-04:00)

Daily predictions for brighter satellites

Satellite Brightness Start Highest point End
(mag) Time Altitude Azimuth Time Altitude Azimuth Time Altitude Azimuth
Cosmos 1680 Rocket 4.4 20:38:38 10° SSE 20:43:04 29° E 20:47:31 10° NE
SPOT 5 4.3 20:44:51 10° ESE 20:47:51 19° ENE 20:50:52 10° NNE
Cosmos 1812 4.1 20:45:13 10° SSW 20:48:54 43° WNW 20:52:39 10° N
Cosmos 1709 Rocket 4.4 20:45:32 10° NNW 20:51:48 70° W 20:57:56 10° S
Cosmos 1743 3.0 20:49:03 10° N 20:52:51 50° E 20:56:38 10° SSE
Iridium 4 Rocket 4.1 20:49:33 10° N 20:54:25 62° W 20:59:44 10° SSW
Cosmos 1346 3.9 20:53:07 10° SSE 20:55:31 27° E 20:57:56 10° NE
Envisat 3.2 20:51:49 10° S 20:56:53 77° WSW 21:02:00 10° NNW
Spot 1 4.4 20:55:11 10° S 20:59:45 75° WSW 21:04:06 10° NNW
Terra 4.1 21:01:21 10° ENE 21:01:58 10° ENE 21:02:35 10° NE
ASTEX 1 3.8 20:57:51 10° SSE 21:02:32 46° ENE 21:07:12 10° N
Aureole 3 Rocket 3.9 20:56:57 10° S 21:03:29 55° E 21:08:10 10° NNE
Tiangong 2 2.5 21:09:00 10° SSW 21:11:25 20° SSE 21:13:19 13° ESE
Cosmos 1437 Rocket 4.3 21:08:38 10° NNE 21:11:32 20° ENE 21:13:57 12° ESE
Meteor 2-9 Rocket 4.5 21:07:22 10° N 21:12:41 52° ENE 21:17:54 11° SSE
Aureole 1 Rocket 3.0 21:09:55 10° S 21:12:59 31° ESE 21:15:44 10° NE
Okean 1-7 Rocket 4.3 21:09:13 10° SSE 21:13:15 35° E 21:17:20 10° NNE
NOSS 2-2 (E) 3.5 21:10:07 10° SSW 21:14:09 85° SE 21:18:55 10° NE
Cosmos 1238 Rocket 4.4 21:09:04 10° SSE 21:15:30 51° E 21:21:50 10° NNE
DNEPR-1 R/B 3.7 21:12:16 10° NNW 21:16:30 66° NE 21:20:18 14° SE
Meteor 2-4 Rocket 3.8 21:15:21 10° S 21:20:51 59° E 21:26:32 10° NNE
Cosmos 1666 2.6 21:19:44 10° N 21:23:30 79° E 21:26:56 12° SSE
ISS -2.7 21:21:07 10° S 21:23:48 23° SE 21:26:30 10° E
Meteor 2-13 Rocket 4.4 21:19:20 10° N 21:25:26 89° E 21:31:31 10° S
OAO 2 Rocket 4.2 21:23:51 10° SW 21:28:04 28° S 21:31:02 16° SE
Cosmos 923 Rocket 4.1 21:23:05 10° SSW 21:28:25 86° WNW 21:33:45 10° NNE
Cosmos 2184 Rocket 4.1 21:25:33 10° N 21:31:56 82° W 21:38:14 10° S
Cosmos 2074 Rocket 4.1 21:25:54 10° N 21:32:09 79° W 21:38:23 10° S
CZ-3A R/B 2.5 21:31:01 10° SSW 21:33:08 17° SSE 21:33:08 17° SSE
Cosmos 1610 Rocket 4.5 21:29:39 10° N 21:35:59 78° E 21:41:40 13° SSE
Lacrosse 5 rocket 4.4 21:35:43 10° NW 21:38:38 16° N 21:41:34 10° NNE
Cosmos 1606 Rocket 4.1 21:35:08 10° N 21:39:14 40° ENE 21:41:41 21° SE
USA 245 2.8 21:38:45 27° SE 21:39:48 43° ENE 21:42:09 10° N
Intercosmos 24 3.8 21:36:43 10° N 21:40:51 64° E 21:43:05 21° SSE
YAOGAN 11 4.0 21:40:59 18° SSE 21:44:07 78° ENE 21:48:27 10° N
Cosmos 1656 Rocket 4.4 21:39:36 10° NW 21:44:48 47° WSW 21:49:49 11° S
YAOGAN 6 4.0 21:42:32 10° SSW 21:45:45 34° W 21:48:58 10° NNW
ERS-1 Rocket 3.4 21:41:29 10° S 21:46:24 62° W 21:51:23 10° NNW
USA 267 4.5 21:42:21 10° E 21:46:31 18° ESE 21:46:45 18° SE
MetOp-A 4.2 21:45:09 14° S 21:49:48 78° WSW 21:55:11 10° NNW
Meteor 1-23 Rocket 4.1 21:44:28 10° S 21:50:01 79° E 21:55:39 10° NNE
Cosmos 1726 Rocket 4.0 21:46:04 10° N 21:50:14 44° ENE 21:52:23 24° SE
MOS 1-B Rocket 4.0 21:46:02 14° SSE 21:50:58 83° WSW 21:57:22 10° NNW
Cosmos 405 Rocket 4.2 21:49:18 10° SW 21:52:47 36° WNW 21:56:21 10° N
GENESIS II 4.4 21:48:59 10° NW 21:52:55 66° WSW 21:55:01 25° SSE
Cosmos 1515 4.3 21:53:03 27° SE 21:54:27 38° E 21:58:01 10° NNE
H-2A R/B 2.2 21:52:51 23° SE 21:55:51 57° ENE 22:00:47 10° N
Cosmos 1980 Rocket 4.3 21:52:54 10° N 21:56:24 16° NE 21:59:53 10° E
Cosmos 2058 Rocket 3.8 21:52:30 10° N 21:56:39 38° ENE 21:58:34 25° SE
Meteor 1-15 Rocket 4.2 21:51:49 10° N 21:57:28 85° E 22:01:26 20° SSE
Cosmos 2112 Rocket 4.3 21:56:04 10° SSW 22:01:15 68° WNW 22:06:28 10° NNE
Cosmos 192 4.4 21:56:59 10° SSW 22:01:54 80° WNW 22:06:50 10° NNE
Cosmos 1025 Rocket 3.1 21:58:33 12° SSW 22:02:28 77° W 22:06:45 10° N
CENTAUR R/B 3.8 21:55:01 10° NW 22:02:33 48° WSW 22:09:18 15° S
Cosmos 1441 Rocket 4.0 22:01:51 10° SSW 22:05:28 48° WNW 22:09:07 10° N
Cosmos 1624 Rocket 4.0 22:02:42 10° NNW 22:08:00 81° ENE 22:10:57 27° SSE
PSLV R/B 3.4 22:07:37 10° W 22:10:37 43° S 22:10:40 43° S
Cosmos 2154 Rocket 4.2 22:09:13 10° NNW 22:15:32 71° W 22:20:26 18° S
Nimbus 7 Rocket 4.4 22:10:52 10° NNE 22:16:58 85° ESE 22:22:27 13° SSW
SL-08 RB Rocket 3.9 22:14:43 25° S 22:17:16 67° WSW 22:21:44 10° NNW
ARGOS 3.6 22:13:34 19° S 22:17:26 60° W 22:22:48 10° NNW
COSMOS 2406 4.4 22:12:34 10° SW 22:18:02 44° WNW 22:23:30 10° NNE
SL-27 R/B 4.0 22:16:03 10° SW 22:19:29 38° WNW 22:22:57 10° N
SL-8 Rocket 4.2 22:13:36 10° N 22:19:47 60° E 22:23:03 29° SSE
Cosmos 2366 rocket 4.4 22:17:50 10° N 22:23:46 47° ENE 22:26:33 29° SE
Landsat 7 3.8 22:21:40 33° SSE 22:23:49 79° ENE 22:28:36 10° N
SPOT 5 3.5 22:23:04 21° SSW 22:25:38 43° W 22:29:47 10° NNW
Cosmos 2278 3.8 22:20:21 10° NNW 22:26:04 72° ENE 22:28:45 32° SE
H-2A R/B 2.4 22:24:49 36° SE 22:26:25 57° ENE 22:30:53 10° N
Cosmos 2056 Rocket 3.5 22:21:33 10° NNW 22:26:44 76° WSW 22:29:09 32° S
Cosmos 2082 Rocket 2.7 22:28:02 32° SE 22:29:43 40° ESE 22:34:59 10° NE
Cosmos 1626 Rocket 4.0 22:37:18 39° ESE 22:37:48 41° E 22:41:53 10° NNE
CZ-4B R/B 4.1 22:33:29 10° NNE 22:38:12 38° E 22:39:08 35° SE
Terra 1.8 22:37:11 40° SSE 22:38:53 78° ENE 22:43:39 10° N
Cosmos 839 Rocket 4.3 22:34:23 10° NW 22:40:55 80° WSW 22:44:54 31° SSE
Cosmos 2341 Rocket 4.4 22:37:23 10° NNW 22:43:36 59° W 22:47:39 22° SSW
Cosmos 2369 3.7 22:38:55 10° NNW 22:44:41 84° WSW 22:46:58 38° SSE
Cosmos 967 Rocket 4.4 22:39:33 10° SSW 22:45:50 89° SE 22:52:10 10° NNE
Spot 4 4.2 22:45:18 38° ESE 22:46:38 50° ENE 22:51:17 10° N
SPOT 1/Viking Rocket 4.4 22:44:17 23° SSW 22:47:04 44° W 22:52:01 10° NNW
COSMOS 2487 2.3 22:47:21 78° SSE 22:47:30 82° ESE 22:51:06 10° NNE
Tiangong 2 3.3 22:44:41 10° WSW 22:45:36 17° WSW 22:45:36 17° WSW
Cosmos 1437 Rocket 4.4 22:44:33 10° NNW 22:47:50 28° W 22:49:25 21° SW
Cosmos 1959 Rocket 4.5 22:44:15 10° N 22:50:40 84° E 22:53:30 36° SSE
SL-08 R/B 4.4 22:44:35 10° N 22:50:43 75° E 22:53:11 38° SSE
SL-16 R/B 4.3 22:50:36 10° N 22:54:15 17° NE 22:57:53 10° E
Cosmos 1697 Rocket 2.9 22:48:52 10° NNW 22:54:27 61° ENE 22:56:25 39° SE
Cosmos 1953 4.2 22:52:02 10° NNE 22:54:58 19° ENE 22:55:13 19° ENE
IGS 5A 3.5 22:56:43 53° SSW 22:57:33 69° WSW 23:01:43 10° NNW
Cosmos 1452 Rocket 3.4 22:53:44 10° NNW 22:59:02 87° ENE 23:00:34 48° SSE
Cosmos 2218 Rocket 3.9 22:53:51 10° N 23:00:02 83° W 23:02:38 37° S
ISS -3.0 22:56:53 10° WSW 23:00:07 51° NNW 23:03:21 10° NE
NOSS 8 (E) 4.5 23:01:42 76° WSW 23:01:54 82° NW 23:05:43 10° NE
DELTA 2 DEB (DPAF) 4.3 23:01:37 52° ESE 23:02:23 62° ENE 23:06:50 10° N
Iridium 2 4.2 23:01:51 10° N 23:05:18 45° ENE 23:05:18 45° ENE
Cosmos 1271 Rocket 3.4 23:01:59 10° N 23:05:37 41° ENE 23:05:37 41° ENE
Cosmos 2228 3.8 23:01:38 10° NNW 23:05:45 43° W 23:06:54 35° SW
deb Chang Zheng 4 3.7 23:06:00 10° N 23:10:18 69° WNW 23:11:26 46° SW
Cosmos 1602 Rocket 3.4 23:10:37 65° SSW 23:11:15 87° W 23:15:36 10° N
Cosmos 921 Rocket 4.1 23:07:46 10° NW 23:11:51 35° W 23:12:53 31° SW
Cosmos 1833 Rocket 2.6 23:11:23 40° SSW 23:13:30 84° ESE 23:19:11 10° NNE
Cosmos 1656 3.7 23:09:27 10° NNW 23:14:52 67° WSW 23:16:17 48° S
ATLAS CENTAUR R/B 3.9 23:15:59 10° NNE 23:17:05 11° NE 23:18:10 10° NE
Lacrosse 5 rocket 4.2 23:16:07 10° NNW 23:19:26 19° NNE 23:22:46 10° ENE
SL-19 R/B 4.5 23:15:00 10° N 23:20:21 62° WNW 23:22:49 31° SW
Meteor 1-21 4.2 23:19:44 51° SSE 23:21:09 73° E 23:26:52 10° NNE
CZ-4 R/B 4.2 23:19:49 10° N 23:24:49 67° WNW 23:26:31 40° SW
Cosmos 1766 3.3 23:21:22 10° NNW 23:25:11 75° WNW 23:25:11 75° WNW
Cosmos 468 4.4 23:24:10 52° SSW 23:25:30 88° ESE 23:30:50 10° NNE
USA 267 3.1 23:23:45 10° NE 23:30:17 70° SE 23:34:02 27° SW
Meteor 1-4 Rocket 3.8 23:27:12 10° NNW 23:30:20 32° W 23:30:20 32° W
Nadezhda 3 Rocket 4.0 23:29:12 48° SSE 23:31:01 70° E 23:37:21 10° NNE
Cosmos 1758 3.7 23:30:14 10° N 23:33:51 53° ENE 23:33:51 53° ENE
H-2A R/B 4.0 23:33:29 13° WSW 23:35:41 17° W 23:38:57 10° NW
Cosmos 1980 Rocket 2.1 23:35:36 10° NNW 23:41:18 85° ENE 23:42:26 59° SSE
Cosmos 1470 4.1 23:39:10 10° N 23:42:26 32° ENE 23:42:26 32° ENE
SeaSat 1 2.6 23:46:39 56° ESE 23:47:28 66° ENE 23:52:23 10° NNW
SME Rocket 3.5 23:46:35 61° SSE 23:47:33 85° ENE 23:51:56 10° NNW
Cosmos 1821 Rocket 4.0 23:42:28 10° N 23:48:44 70° E 23:50:18 51° SE
Cosmos 2322 Rocket 3.2 23:44:21 10° NNW 23:49:41 39° ENE 23:51:42 29° E
